[[{"header":{"parameterUnit":"m.s-1","parameterCategory":1,"la1":30.2991,"la2":30.254,"lo1":-89.0895,"lo2":-89.0444,"dy":0.0017,"dx":0.0017,"nx":28,"ny":28,"refTime":"2024-06-21T09:00:00:Z","depth":0,"parameterNumber":2,"parameterNumberName":"U-component_of_WINDS"},"data":[0,0,0,0,0,0,0,0,0,0,0,0,0,0,0,0,0,0,0,0,0,0,0,0,0,0,0,0,0,0,0,0,0,0,0,0,0,0,0,0,0,0,0,0,0,0,0,0,0,0,0,0,0,0,0,0,0,0,-3.8616,-3.8616,0,-3.8565,-3.8564,-3.8563,-3.8372,-3.8368,-3.8363,-3.8359,-3.831,-3.8313,-3.8316,0,0,0,0,0,0,0,0,0,0,0,0,0,-3.8554,-3.8556,-3.8616,-3.8616,-3.8615,-3.8565,-3.8564,-3.8563,-3.8373,-3.8367,-3.8362,-3.8357,-3.831,-3.8313,-3.8316,0,0,0,0,0,0,0,0,0,0,0,0,0,-3.855,-3.8557,-3.8617,-3.8514,-3.8504,-3.8565,-3.8564,-3.8563,-3.8374,-3.8367,-3.8361,-3.8355,-3.8308,-3.8313,-3.8317,-3.8474,0,0,-3.8329,-3.8331,0,0,0,0,0,0,0,0,-3.855,-3.8552,-3.853,-3.8521,-3.851,-3.8468,-3.8524,-3.8533,-3.8375,-3.8423,-3.8359,-3.8351,-3.8368,-3.8367,-3.8372,-3.8471,-3.8469,-3.833,-3.8332,-3.8334,-3.8335,0,0,0,0,0,0,0,-3.8551,-3.8553,-3.8596,-3.853,-3.8518,-3.8471,-3.8464,-3.8525,-3.8434,-3.8419,-3.8405,-3.8401,-3.8362,-3.8369,-3.837,-3.8469,-3.833,-3.8333,-3.8336,-3.8338,-3.8693,-3.87,0,0,0,0,0,0,-3.8565,-3.8555,-3.8598,-3.8594,-3.8514,-3.8478,-3.8469,-3.8488,-3.8432,-3.8417,-3.8407,-3.8392,-3.8365,-3.8365,-3.8367,-3.8546,-3.8334,-3.8338,-3.834,-3.8686,-3.8695,-3.8702,0,0,0,0,0,0,-3.8564,-3.8571,-3.86,-3.8571,-3.8571,-3.8486,-3.8509,-3.8491,-3.8497,-3.8423,-3.8406,-3.843,-3.8359,-3.8361,-3.8448,-3.8542,-3.834,-3.8344,-3.8678,-3.8689,-3.8699,-3.8907,0,0,0,0,0,0,-3.8563,-3.8571,-3.863,-3.8573,-3.8573,-3.8681,-3.8515,-3.8494,-3.8504,-3.8485,-3.844,-3.8427,-3.8354,-3.8443,-3.8452,-3.8544,-3.8347,-3.8669,-3.8683,-3.8695,-3.8891,-3.8923,-3.895,0,0,0,0,0,-3.8562,-3.8692,-3.8634,-3.864,-3.8644,-3.8687,-3.8687,-3.8599,-3.8512,-3.857,-3.8523,-3.8428,-3.8531,-3.8453,-3.8462,-3.8557,-3.8663,-3.8679,-3.8694,-3.8878,-3.8917,-3.8949,0,0,0,0,0,0,-3.8763,-3.8682,-3.8617,-3.8732,-3.8718,-3.8654,-3.8725,-3.8644,-3.8655,-3.8636,-3.8529,-3.8521,-3.8623,-3.8598,-3.8514,-3.8705,-3.8581,-3.8599,-3.8717,-3.8754,-3.8783,-3.8786,-3.835,0,0,0,0,0,-3.882,-3.8861,-3.8789,-3.8897,-3.8893,-3.8811,-3.8826,-3.876,-3.8741,-3.8735,-3.8693,-3.868,-3.8708,-3.873,-3.8752,-3.8887,-3.8874,-3.8956,-3.8986,-3.9011,-3.9027,-3.9096,-3.9131,-3.8754,-3.8754,-3.8753,0,0,-3.894,-3.8901,-3.8933,-3.8937,-3.8917,-3.8962,-3.8807,-3.8862,-3.8894,-3.8743,-3.8822,-3.8792,-3.877,-3.8881,-3.8928,-3.8864,-3.9129,-3.903,-3.9051,-3.9054,-3.9116,-3.9151,-3.9183,-3.8764,-3.8762,-3.8761,0,0,-3.918,-3.9155,-3.9242,-3.9225,-3.9198,-3.9142,-3.9164,-3.9112,-3.9086,-3.9163,-3.905,-3.9089,-3.9141,-3.9129,-3.913,-3.9366,-3.9279,-3.9377,-3.9531,-3.9599,-3.9629,-3.9654,-3.9738,-3.9769,-3.9394,-3.9394,-3.9395,0,-3.9332,-3.9394,-3.9297,-3.9358,-3.9363,-3.9227,-3.9315,-3.9304,-3.9287,-3.9294,-3.9222,-3.9283,-3.9259,-3.9365,-3.9423,-3.9429,-3.945,-3.938,-3.9632,-3.9657,-3.9679,-3.9758,-3.9789,-3.9406,-3.9405,-3.9404,-3.9403,0,-3.9582,-3.9627,-3.9701,-3.9685,-3.9698,-3.9773,-3.9688,-3.9713,-3.9647,-3.9599,-3.9679,-3.9645,-3.9658,-3.9679,-3.9615,-3.9776,-3.9737,-3.9651,-3.9523,-3.9729,-3.9801,-3.983,-3.9423,-3.9419,-3.9415,-3.9413,0,0,-3.9947,-3.9876,-3.9904,-3.9895,-3.9854,-3.9887,-3.9956,-3.9967,-3.999,-3.9984,-4.0038,-4.0085,-4.0004,-4.0006,-3.994,-4.0,-4.0188,-3.9905,-3.9903,-3.9958,-4.0363,-4.0427,-4.0463,-4.0131,-4.0136,-4.014,-4.0364,0,-4.0174,-4.0285,-4.02,-4.0326,-4.0366,-4.0238,-4.0298,-4.028,-4.0238,-4.0267,-4.022,-4.0255,-4.0147,-4.0146,-4.02,-4.0154,-4.0268,-4.0137,-4.0181,-4.0184,-4.0189,-4.0501,-4.0569,-4.0782,-4.0392,-4.0396,-4.04,0,-4.0454,-4.0457,-4.0587,-4.0537,-4.055,-4.0605,-4.0608,-4.0637,-4.0615,-4.058,-4.0582,-4.0499,-4.0564,-4.044,-4.0528,-4.0441,-4.0454,-4.0435,-4.0441,-4.044,-4.0303,-4.0508,-4.0847,-4.0879,-4.0443,-4.044,-4.0437,0,-4.0705,-4.0742,-4.0824,-4.082,-4.0764,-4.0806,-4.0785,-4.0756,-4.0767,-4.0771,-4.0777,-4.0789,-4.0796,-4.0807,-4.0731,-4.0648,-4.0829,-4.0699,-4.0802,-4.0804,-4.0844,-4.0843,-4.119,-4.0856,-4.0856,-4.0855,-4.0855,0,-4.0967,-4.1052,-4.0936,-4.0986,-4.1077,-4.0979,-4.1072,-4.1038,-4.1014,-4.1056,-4.0947,-4.099,-4.0887,-4.0919,-4.086,-4.0942,-4.0946,-4.092,-4.0903,-4.0929,-4.0932,-4.0935,-4.0918,-4.0864,-4.0862,-4.086,-4.0859,0,-4.1263,-4.1189,-4.1269,-4.1209,-4.1196,-4.1266,-4.1215,-4.1259,-4.121,-4.1265,-4.1272,-4.1195,-4.1228,-4.1153,-4.1175,-4.1135,-4.1251,-4.1212,-4.1258,-4.1246,-4.1353,-4.1343,-4.1713,-4.1756,-4.1397,-4.14,-4.1403,0,-4.1434,-4.1495,-4.1441,-4.146,-4.1445,-4.1478,-4.1489,-4.1395,-4.1411,-4.1391,-4.1438,-4.1461,-4.1474,-4.1532,-4.1479,-4.1496,-4.1455,-4.1583,-4.1457,-4.1481,-4.1455,-4.1452,-4.1457,-4.1609,-4.1614,-4.1617,-4.162,0,-4.1745,-4.1705,-4.1723,-4.173,-4.1745,-4.1746,-4.1739,-4.1762,-4.1663,-4.1686,-4.1717,-4.1727,-4.1749,-4.1773,-4.1778,-4.1757,-4.1673,-4.1661,-4.1685,-4.1711,-4.1735,-4.1722,-4.1328,-4.1652,-4.1649,-4.1647,-4.1645,-4.1644,-4.1982,-4.203,-4.1999,-4.2023,-4.2008,-4.2004,-4.2043,-4.1998,-4.2021,-4.2029,-4.1974,-4.2017,-4.1993,-4.199,-4.1978,-4.2012,-4.1953,-4.1989,-4.1998,-4.2008,-4.2025,-4.1731,-4.2012,-4.2011,-4.201,-4.201,-4.2009,0,-4.2286,-4.2259,-4.2283,-4.2276,-4.2295,-4.2213,-4.2201,-4.2223,-4.2261,-4.2246,-4.226,-4.2296,-4.2319,-4.2268,-4.2283,-4.232,-4.2282,-4.2327,-4.2322,-4.2319,-4.2077,-4.2053,-4.2357,-4.2357,-4.2357,-4.2357,-4.2357,-4.2357,-4.2446,-4.2523,-4.2479,-4.2548,-4.252,-4.256,-4.256,-4.2557,-4.2543,-4.2587,-4.2604,-4.257,-4.2541,-4.2553,-4.2571,-4.2555,-4.2566,-4.2625,-4.2596,-4.237,-4.2336,-4.2304,-4.2281,-4.2628,-4.2628,-4.2835,-4.2837,-4.2838]},{"header":{"parameterUnit":"m.s-1","parameterCategory":1,"la1":30.2991,"la2":30.254,"lo1":-89.0895,"lo2":-89.0444,"dy":0.0017,"dx":0.0017,"nx":28,"ny":28,"refTime":"2024-06-21T09:00:00:Z","depth":0,"parameterNumber":3,"parameterNumberName":"V-component_of_WINDS"},"data":[0,0,0,0,0,0,0,0,0,0,0,0,0,0,0,0,0,0,0,0,0,0,0,0,0,0,0,0,0,0,0,0,0,0,0,0,0,0,0,0,0,0,0,0,0,0,0,0,0,0,0,0,0,0,0,0,0,0,-1.6652,-1.6652,0,-1.6676,-1.6677,-1.6677,-1.6679,-1.6678,-1.6678,-1.6678,-1.6703,-1.6704,-1.6705,0,0,0,0,0,0,0,0,0,0,0,0,0,-1.6607,-1.6608,-1.6652,-1.6652,-1.6653,-1.6676,-1.6677,-1.6677,-1.6679,-1.6678,-1.6678,-1.6678,-1.6703,-1.6704,-1.6705,0,0,0,0,0,0,0,0,0,0,0,0,0,-1.6628,-1.6608,-1.6652,-1.6656,-1.6657,-1.6676,-1.6677,-1.6677,-1.6679,-1.6678,-1.6678,-1.6678,-1.6702,-1.6704,-1.6705,-1.6721,0,0,-1.6709,-1.671,0,0,0,0,0,0,0,0,-1.6627,-1.663,-1.6656,-1.6656,-1.6657,-1.6674,-1.667,-1.6692,-1.6679,-1.6671,-1.6678,-1.6677,-1.6694,-1.6696,-1.6701,-1.6723,-1.6724,-1.6709,-1.671,-1.6711,-1.6711,0,0,0,0,0,0,0,-1.6625,-1.6629,-1.6662,-1.6656,-1.6657,-1.6657,-1.6659,-1.6674,-1.6684,-1.6671,-1.6671,-1.6674,-1.6694,-1.67,-1.6702,-1.6724,-1.6709,-1.671,-1.6711,-1.6712,-1.6758,-1.6758,0,0,0,0,0,0,-1.6623,-1.6628,-1.6661,-1.6662,-1.6641,-1.6658,-1.6661,-1.6669,-1.6684,-1.6686,-1.6674,-1.6674,-1.6698,-1.67,-1.6703,-1.6722,-1.6711,-1.6712,-1.6713,-1.6758,-1.6758,-1.6759,0,0,0,0,0,0,-1.6622,-1.6626,-1.666,-1.6645,-1.6649,-1.6659,-1.6668,-1.667,-1.6675,-1.6686,-1.6688,-1.6679,-1.6697,-1.6701,-1.6716,-1.6723,-1.6713,-1.6714,-1.6757,-1.6758,-1.6758,-1.6761,0,0,0,0,0,0,-1.6621,-1.6626,-1.6633,-1.6645,-1.665,-1.6674,-1.6669,-1.667,-1.6678,-1.6678,-1.6691,-1.6693,-1.6697,-1.6714,-1.6718,-1.6724,-1.6715,-1.6757,-1.6758,-1.6758,-1.676,-1.6761,-1.6762,0,0,0,0,0,-1.6619,-1.6633,-1.6633,-1.6637,-1.6659,-1.6674,-1.6677,-1.6682,-1.6678,-1.6685,-1.6691,-1.6692,-1.6721,-1.6716,-1.672,-1.6727,-1.6756,-1.6757,-1.6758,-1.6759,-1.6761,-1.6762,0,0,0,0,0,0,-1.6622,-1.6635,-1.6635,-1.6653,-1.6662,-1.6674,-1.6683,-1.6684,-1.6694,-1.6694,-1.67,-1.6703,-1.6718,-1.6724,-1.6717,-1.6742,-1.6738,-1.674,-1.6738,-1.6739,-1.6741,-1.6739,-1.6716,0,0,0,0,0,-1.6624,-1.6635,-1.6646,-1.6661,-1.6666,-1.6673,-1.668,-1.6683,-1.6693,-1.6697,-1.6705,-1.6714,-1.6725,-1.6733,-1.6744,-1.6761,-1.6763,-1.6767,-1.6768,-1.6769,-1.6771,-1.6778,-1.678,-1.6762,-1.6762,-1.6762,0,0,-1.663,-1.6638,-1.6645,-1.6662,-1.6669,-1.668,-1.6677,-1.6689,-1.6697,-1.6699,-1.6714,-1.672,-1.6731,-1.6746,-1.6754,-1.6752,-1.6776,-1.677,-1.6771,-1.6772,-1.6779,-1.6781,-1.6783,-1.6762,-1.6762,-1.6762,0,0,-1.6645,-1.6653,-1.6666,-1.6673,-1.6684,-1.6688,-1.6691,-1.6703,-1.6706,-1.6721,-1.6722,-1.6732,-1.6751,-1.6758,-1.6765,-1.678,-1.6781,-1.6784,-1.6789,-1.6797,-1.6798,-1.68,-1.6804,-1.6806,-1.6785,-1.6785,-1.6785,0,-1.6651,-1.6668,-1.6672,-1.6684,-1.669,-1.6691,-1.6703,-1.671,-1.6724,-1.6729,-1.6726,-1.6749,-1.6757,-1.6774,-1.6777,-1.6783,-1.6785,-1.6782,-1.6798,-1.6799,-1.68,-1.6805,-1.6807,-1.6785,-1.6785,-1.6785,-1.6785,0,-1.6673,-1.6685,-1.6693,-1.6706,-1.6713,-1.6725,-1.6731,-1.6738,-1.6739,-1.6744,-1.6758,-1.6767,-1.6779,-1.6783,-1.6785,-1.6799,-1.6798,-1.6797,-1.6793,-1.6802,-1.6806,-1.6808,-1.6785,-1.6785,-1.6785,-1.6785,0,0,-1.6693,-1.6706,-1.6709,-1.6714,-1.6725,-1.6733,-1.6745,-1.6756,-1.6761,-1.677,-1.6779,-1.6794,-1.6793,-1.68,-1.6802,-1.6809,-1.6819,-1.6807,-1.6807,-1.6808,-1.6834,-1.6834,-1.6836,-1.6819,-1.682,-1.682,-1.6833,0,-1.6709,-1.6729,-1.6732,-1.6749,-1.6759,-1.6759,-1.6768,-1.6776,-1.678,-1.6788,-1.6793,-1.6803,-1.6801,-1.6805,-1.6811,-1.6816,-1.6824,-1.6816,-1.6827,-1.6827,-1.6824,-1.6839,-1.684,-1.6851,-1.6834,-1.6835,-1.6835,0,-1.6731,-1.6739,-1.6757,-1.6765,-1.6769,-1.6778,-1.6787,-1.6795,-1.6803,-1.6806,-1.6812,-1.6814,-1.6824,-1.6819,-1.6834,-1.6828,-1.6832,-1.6835,-1.6836,-1.6837,-1.6832,-1.684,-1.6855,-1.6857,-1.6838,-1.6837,-1.6837,0,-1.6742,-1.6758,-1.677,-1.6774,-1.6784,-1.679,-1.6794,-1.6801,-1.6807,-1.6815,-1.6819,-1.6828,-1.6833,-1.684,-1.6844,-1.684,-1.6857,-1.6853,-1.6859,-1.6859,-1.6863,-1.6863,-1.6879,-1.6866,-1.6866,-1.6866,-1.6866,0,-1.6759,-1.677,-1.6775,-1.6782,-1.6794,-1.6797,-1.6808,-1.6812,-1.6818,-1.6826,-1.6827,-1.6834,-1.6839,-1.6846,-1.6849,-1.686,-1.6862,-1.6864,-1.6865,-1.6864,-1.6863,-1.6867,-1.6866,-1.6867,-1.6867,-1.6867,-1.6867,0,-1.6774,-1.6777,-1.679,-1.6798,-1.68,-1.6808,-1.6814,-1.6821,-1.6824,-1.6834,-1.6837,-1.6842,-1.6851,-1.6855,-1.6866,-1.6868,-1.688,-1.688,-1.6877,-1.6877,-1.6883,-1.6882,-1.6902,-1.6904,-1.6891,-1.6891,-1.6891,0,-1.6785,-1.6792,-1.68,-1.6805,-1.6809,-1.6818,-1.6823,-1.6826,-1.6831,-1.684,-1.6845,-1.6854,-1.6861,-1.6875,-1.688,-1.6888,-1.6888,-1.6895,-1.689,-1.6888,-1.6888,-1.6887,-1.6887,-1.6896,-1.6896,-1.6896,-1.6896,0,-1.6803,-1.6804,-1.6811,-1.6819,-1.6825,-1.6832,-1.6838,-1.6842,-1.6845,-1.6851,-1.686,-1.6865,-1.6876,-1.6884,-1.6893,-1.6897,-1.6897,-1.6897,-1.6899,-1.6898,-1.6896,-1.6896,-1.6879,-1.6897,-1.6897,-1.6897,-1.6897,-1.6897,-1.6815,-1.6822,-1.6828,-1.6836,-1.684,-1.6845,-1.6852,-1.6855,-1.6862,-1.6871,-1.6872,-1.6881,-1.6887,-1.6898,-1.6902,-1.6909,-1.6907,-1.691,-1.691,-1.6911,-1.6911,-1.6895,-1.691,-1.691,-1.691,-1.691,-1.691,0,-1.6833,-1.6836,-1.6844,-1.6851,-1.6857,-1.6856,-1.6862,-1.6867,-1.6875,-1.688,-1.6887,-1.6896,-1.6904,-1.6908,-1.6916,-1.692,-1.692,-1.6922,-1.6922,-1.6922,-1.6912,-1.691,-1.6922,-1.6922,-1.6922,-1.6922,-1.6922,-1.6922,-1.6843,-1.6853,-1.6854,-1.6866,-1.687,-1.6878,-1.6881,-1.6886,-1.689,-1.69,-1.6906,-1.6909,-1.6913,-1.6921,-1.6928,-1.6929,-1.6931,-1.6933,-1.6934,-1.6924,-1.6923,-1.6922,-1.692,-1.6934,-1.6934,-1.6943,-1.6943,-1.6943]}]]